Terug naar catalogus

TEMPSAT 2

ActiefWetenschapLEO
NORAD 4168·PAYLOAD·🇺🇸 United States

Gelanceerd Sep 30, 1969 vanaf Vandenberg Space Force Base

Loading…

Volgende Passages (komende 24 uur)

TLE

VersSource: Space-Track

Epoch: Sep 14, 2026, 11:42 UTC

1 04168U 69082H   26257.48814021 -.00000012  00000-0  29559-4 0  9992
2 04168  70.0119 267.2146 0019774   1.5526 358.5638 13.96025051900553

Volg TEMPSAT 2 in realtime met AllMySat

Download on the App Store